timestamp,wind_dir_avg,wind_spd_avg,wind_spd_max_dir,wind_spd_gust,battery_voltage,lat,long
2023-05-01 00:04:00+00:00,18.0,5.48,36.0,7.6,12.73,47.59359,-54.27349
2023-05-01 00:14:00+00:00,9.0,4.04,9.0,5.01,12.33,47.59359,-54.27349
2023-05-01 00:24:00+00:00,1.0,3.86,4.0,4.68,12.33,47.59359,-54.27349
2023-05-01 00:34:00+00:00,2.0,4.85,5.0,6.38,12.33,47.59359,-54.27349
2023-05-01 00:44:00+00:00,356.0,3.32,358.0,3.98,12.33,47.59359,-54.27349
2023-05-01 00:54:00+00:00,358.0,4.06,1.0,4.7,12.33,47.59359,-54.27349
2023-05-01 01:04:00+00:00,359.0,4.82,0.0,5.19,12.33,47.59359,-54.27349
2023-05-01 01:14:00+00:00,357.0,5.73,0.0,6.45,12.33,47.59359,-54.27349
2023-05-01 01:24:00+00:00,342.0,4.57,345.0,5.19,12.33,47.59359,-54.27349
2023-05-01 01:34:00+00:00,327.0,3.55,329.0,3.81,12.33,47.59359,-54.27349
2023-05-01 01:44:00+00:00,331.0,4.17,336.0,4.66,12.33,47.59359,-54.27349
2023-05-01 01:54:00+00:00,344.0,5.07,345.0,5.42,12.33,47.59359,-54.27349
2023-05-01 02:04:00+00:00,340.0,5.32,340.0,5.73,12.33,47.59359,-54.27349
2023-05-01 02:14:00+00:00,331.0,4.39,331.0,5.17,12.25,47.59359,-54.27349
2023-05-01 02:24:00+00:00,337.0,4.52,339.0,4.95,12.25,47.59359,-54.27349
2023-05-01 02:34:00+00:00,350.0,4.62,349.0,4.92,12.25,47.59359,-54.27349
2023-05-01 02:44:00+00:00,359.0,5.91,0.0,6.25,12.25,47.59359,-54.27349
2023-05-01 02:54:00+00:00,3.0,6.31,5.0,6.69,12.25,47.59359,-54.27349
2023-05-01 03:04:00+00:00,8.0,5.55,7.0,6.6,12.25,47.59359,-54.27349
2023-05-01 03:14:01+00:00,5.0,6.9,4.0,7.55,12.25,47.59359,-54.27349
2023-05-01 03:24:01+00:00,10.0,6.59,15.0,7.44,12.25,47.59359,-54.27349
2023-05-01 03:34:01+00:00,6.0,6.97,1.0,7.7,12.25,47.59359,-54.27349
2023-05-01 03:44:01+00:00,7.0,6.07,6.0,6.94,12.25,47.59359,-54.27349
2023-05-01 03:54:01+00:00,3.0,5.59,7.0,6.75,12.25,47.59359,-54.27349
2023-05-01 04:04:01+00:00,0.0,5.2,1.0,5.69,12.25,47.59359,-54.27349
2023-05-01 04:14:00+00:00,6.0,4.75,6.0,5.02,12.25,47.59359,-54.27349
2023-05-01 04:24:00+00:00,13.0,4.53,13.0,5.15,12.25,47.59359,-54.27349
2023-05-01 04:34:00+00:00,355.0,4.54,358.0,5.14,12.25,47.59359,-54.27349
2023-05-01 04:44:00+00:00,1.0,4.09,4.0,4.57,12.25,47.59359,-54.27349
2023-05-01 04:54:00+00:00,11.0,3.68,16.0,4.3,12.25,47.59359,-54.27349
2023-05-01 05:04:00+00:00,2.0,2.86,359.0,3.23,12.25,47.59359,-54.27349
2023-05-01 05:14:00+00:00,354.0,3.59,352.0,4.07,12.17,47.59359,-54.27349
2023-05-01 05:24:00+00:00,2.0,3.35,2.0,3.76,12.17,47.59359,-54.27349
2023-05-01 05:34:00+00:00,356.0,2.56,350.0,2.82,12.17,47.59359,-54.27349
2023-05-01 05:44:00+00:00,357.0,2.75,352.0,3.08,12.17,47.59359,-54.27349
2023-05-01 05:54:00+00:00,11.0,4.71,5.0,5.15,12.17,47.59359,-54.27349
2023-05-01 06:04:00+00:00,354.0,5.8,359.0,6.43,12.17,47.59359,-54.27349
2023-05-01 06:14:00+00:00,0.0,6.17,346.0,6.88,12.17,47.59359,-54.27349
2023-05-01 06:24:00+00:00,12.0,5.81,29.0,7.33,12.17,47.59359,-54.27349
2023-05-01 06:34:00+00:00,27.0,8.52,28.0,9.32,12.17,47.59359,-54.27349
2023-05-01 06:44:00+00:00,11.0,8.25,21.0,9.92,12.17,47.59359,-54.27349
2023-05-01 06:54:00+00:00,358.0,8.72,350.0,9.76,12.17,47.59359,-54.27349
2023-05-01 07:04:00+00:00,1.0,7.95,352.0,8.88,12.17,47.59359,-54.27349
2023-05-01 07:14:01+00:00,7.0,7.41,19.0,8.81,12.17,47.59359,-54.27349
2023-05-01 07:24:01+00:00,7.0,7.63,7.0,9.08,12.17,47.59359,-54.27349
2023-05-01 07:34:01+00:00,6.0,6.96,8.0,8.03,12.17,47.59359,-54.27349
2023-05-01 07:44:01+00:00,5.0,5.28,5.0,5.93,12.17,47.59359,-54.27349
2023-05-01 07:54:01+00:00,11.0,6.25,9.0,7.07,12.17,47.59359,-54.27349
2023-05-01 08:04:01+00:00,10.0,6.22,19.0,7.88,12.17,47.59359,-54.27349
2023-05-01 08:14:01+00:00,11.0,7.86,20.0,9.42,12.09,47.59359,-54.27349
2023-05-01 08:24:01+00:00,11.0,6.49,25.0,7.99,12.09,47.59359,-54.27349
2023-05-01 08:34:01+00:00,26.0,7.09,25.0,7.95,12.09,47.59359,-54.27349
2023-05-01 08:44:01+00:00,24.0,5.46,29.0,6.49,12.09,47.59359,-54.27349
2023-05-01 08:54:01+00:00,33.0,6.4,34.0,7.17,12.09,47.59359,-54.27349
2023-05-01 09:04:01+00:00,17.0,7.57,15.0,8.52,12.09,47.59359,-54.27349
2023-05-01 09:14:01+00:00,13.0,7.71,16.0,9.35,12.17,47.59359,-54.27349
2023-05-01 09:24:01+00:00,14.0,8.85,18.0,11.01,12.17,47.59359,-54.27349
2023-05-01 09:34:01+00:00,15.0,8.18,22.0,9.4,12.17,47.59359,-54.27349
2023-05-01 09:44:01+00:00,18.0,7.69,22.0,8.43,12.17,47.59359,-54.27349
2023-05-01 09:54:01+00:00,8.0,6.67,359.0,7.91,12.17,47.59359,-54.27349
2023-05-01 10:04:01+00:00,5.0,6.58,15.0,7.32,12.17,47.59359,-54.27349
2023-05-01 10:14:00+00:00,7.0,6.52,12.0,7.33,13.05,47.59359,-54.27349
2023-05-01 10:24:00+00:00,26.0,7.06,33.0,7.97,13.05,47.59359,-54.27349
2023-05-01 10:34:00+00:00,12.0,7.32,8.0,7.98,13.05,47.59359,-54.27349
2023-05-01 10:44:00+00:00,11.0,7.08,23.0,8.35,13.05,47.59359,-54.27349
2023-05-01 10:54:00+00:00,6.0,7.52,16.0,8.94,13.05,47.59359,-54.27349
2023-05-01 11:04:00+00:00,3.0,7.91,17.0,9.13,13.05,47.59359,-54.27349
2023-05-01 11:14:01+00:00,17.0,7.45,21.0,9.56,13.6,47.59359,-54.27349
2023-05-01 11:24:01+00:00,23.0,6.9,22.0,8.39,13.6,47.59359,-54.27349
2023-05-01 11:34:01+00:00,48.0,12.15,48.0,13.36,13.6,47.59359,-54.27349
2023-05-01 11:44:01+00:00,37.0,8.88,51.0,11.92,13.6,47.59359,-54.27349
2023-05-01 11:54:01+00:00,39.0,8.7,51.0,12.37,13.6,47.59359,-54.27349
2023-05-01 12:04:01+00:00,45.0,11.46,46.0,13.1,13.6,47.59359,-54.27349
2023-05-01 12:14:00+00:00,49.0,12.31,49.0,13.01,13.84,47.59359,-54.27349
2023-05-01 12:24:00+00:00,42.0,8.88,52.0,11.91,13.84,47.59359,-54.27349
2023-05-01 12:34:00+00:00,44.0,8.17,56.0,11.54,13.84,47.59359,-54.27349
2023-05-01 12:44:00+00:00,52.0,9.13,60.0,11.47,13.84,47.59359,-54.27349
2023-05-01 12:54:00+00:00,43.0,8.67,53.0,11.59,13.84,47.59359,-54.27349
2023-05-01 13:04:00+00:00,52.0,9.19,59.0,11.9,13.84,47.59359,-54.27349
2023-05-01 13:14:00+00:00,64.0,8.81,65.0,10.63,13.68,47.59359,-54.27349
2023-05-01 13:24:00+00:00,53.0,4.73,53.0,5.1,13.68,47.59359,-54.27349
2023-05-01 13:34:00+00:00,58.0,5.84,72.0,9.46,13.68,47.59359,-54.27349
2023-05-01 13:44:00+00:00,56.0,5.49,61.0,7.05,13.68,47.59359,-54.27349
2023-05-01 13:54:00+00:00,59.0,9.35,63.0,10.83,13.68,47.59359,-54.27349
2023-05-01 14:04:00+00:00,62.0,10.74,61.0,11.58,13.68,47.59359,-54.27349
2023-05-01 14:14:00+00:00,66.0,9.3,65.0,10.89,14.48,47.59359,-54.27349
2023-05-01 14:24:00+00:00,59.0,5.04,70.0,7.25,14.48,47.59359,-54.27349
2023-05-01 14:34:00+00:00,67.0,4.81,71.0,5.96,14.48,47.59359,-54.27349
2023-05-01 14:44:00+00:00,67.0,4.69,65.0,4.94,14.48,47.59359,-54.27349
2023-05-01 14:54:00+00:00,45.0,4.35,49.0,5.11,14.48,47.59359,-54.27349
2023-05-01 15:04:00+00:00,47.0,5.84,49.0,6.92,14.48,47.59359,-54.27349
2023-05-01 15:14:00+00:00,35.0,3.91,42.0,4.52,14.4,47.59359,-54.27349
2023-05-01 15:24:00+00:00,51.0,5.17,52.0,5.51,14.4,47.59359,-54.27349
2023-05-01 15:34:00+00:00,41.0,2.89,47.0,3.48,14.4,47.59359,-54.27349
2023-05-01 15:44:00+00:00,63.0,3.52,55.0,4.68,14.4,47.59359,-54.27349
2023-05-01 15:54:00+00:00,54.0,5.1,54.0,5.55,14.4,47.59359,-54.27349
2023-05-01 16:04:00+00:00,54.0,5.28,54.0,5.73,14.4,47.59359,-54.27349
2023-05-01 16:14:01+00:00,58.0,4.61,57.0,5.1,13.68,47.59359,-54.27349
2023-05-01 16:24:01+00:00,69.0,7.07,75.0,9.36,13.68,47.59359,-54.27349
2023-05-01 16:34:01+00:00,68.0,6.12,74.0,7.6,13.68,47.59359,-54.27349
2023-05-01 16:44:01+00:00,64.0,4.91,54.0,5.64,13.68,47.59359,-54.27349
2023-05-01 16:54:01+00:00,73.0,6.76,71.0,7.24,13.68,47.59359,-54.27349
2023-05-01 17:04:01+00:00,76.0,6.59,73.0,7.7,13.68,47.59359,-54.27349
2023-05-01 17:14:00+00:00,75.0,6.36,74.0,7.12,14.48,47.59359,-54.27349
2023-05-01 17:24:00+00:00,71.0,6.74,72.0,7.06,14.48,47.59359,-54.27349
2023-05-01 17:34:00+00:00,71.0,6.8,71.0,7.02,14.48,47.59359,-54.27349
2023-05-01 17:44:00+00:00,73.0,6.21,73.0,6.55,14.48,47.59359,-54.27349
2023-05-01 17:54:00+00:00,71.0,6.14,71.0,6.37,14.48,47.59359,-54.27349
2023-05-01 18:04:00+00:00,71.0,5.66,72.0,6.36,14.48,47.59359,-54.27349
2023-05-01 18:14:00+00:00,62.0,5.31,54.0,6.22,14.08,47.59359,-54.27349
2023-05-01 18:24:00+00:00,68.0,5.41,64.0,6.24,14.08,47.59359,-54.27349
2023-05-01 18:34:00+00:00,73.0,6.29,67.0,6.9,14.08,47.59359,-54.27349
2023-05-01 18:44:00+00:00,70.0,6.99,63.0,7.4,14.08,47.59359,-54.27349
2023-05-01 18:54:00+00:00,70.0,5.88,71.0,6.12,14.08,47.59359,-54.27349
2023-05-01 19:04:00+00:00,59.0,4.73,60.0,6.15,14.08,47.59359,-54.27349
2023-05-01 19:14:00+00:00,58.0,4.82,60.0,5.64,13.6,47.59359,-54.27349
2023-05-01 19:24:00+00:00,63.0,5.5,73.0,6.25,13.6,47.59359,-54.27349
2023-05-01 19:34:00+00:00,70.0,6.21,70.0,6.57,13.6,47.59359,-54.27349
2023-05-01 19:44:00+00:00,65.0,5.56,60.0,6.59,13.6,47.59359,-54.27349
2023-05-01 19:54:00+00:00,68.0,7.11,66.0,7.6,13.6,47.59359,-54.27349
2023-05-01 20:04:00+00:00,67.0,5.92,66.0,6.5,13.6,47.59359,-54.27349
2023-05-01 20:14:00+00:00,67.0,5.85,64.0,6.79,13.68,47.59359,-54.27349
2023-05-01 20:24:00+00:00,66.0,6.07,71.0,6.99,13.68,47.59359,-54.27349
2023-05-01 20:34:00+00:00,68.0,6.62,69.0,7.18,13.68,47.59359,-54.27349
2023-05-01 20:44:00+00:00,70.0,6.93,71.0,7.52,13.68,47.59359,-54.27349
2023-05-01 20:54:00+00:00,72.0,7.19,72.0,7.75,13.68,47.59359,-54.27349
2023-05-01 21:04:00+00:00,70.0,6.72,69.0,7.53,13.68,47.59359,-54.27349
2023-05-01 21:14:00+00:00,65.0,7.08,67.0,8.19,13.6,47.59359,-54.27349
2023-05-01 21:24:00+00:00,74.0,5.39,78.0,7.33,13.6,47.59359,-54.27349
2023-05-01 21:34:00+00:00,75.0,4.94,74.0,7.09,13.6,47.59359,-54.27349
2023-05-01 21:44:00+00:00,74.0,5.74,74.0,7.17,13.6,47.59359,-54.27349
2023-05-01 21:54:00+00:00,71.0,5.37,67.0,6.47,13.6,47.59359,-54.27349
2023-05-01 22:04:00+00:00,71.0,6.73,74.0,7.3,13.6,47.59359,-54.27349
2023-05-01 22:14:00+00:00,72.0,5.6,74.0,6.49,13.29,47.59359,-54.27349
2023-05-01 22:24:00+00:00,70.0,5.72,70.0,7.06,13.29,47.59359,-54.27349
2023-05-01 22:34:00+00:00,72.0,5.89,67.0,6.25,13.29,47.59359,-54.27349
2023-05-01 22:44:00+00:00,74.0,5.3,61.0,6.65,13.29,47.59359,-54.27349
2023-05-01 22:54:00+00:00,68.0,6.6,70.0,7.62,13.29,47.59359,-54.27349
2023-05-01 23:04:00+00:00,63.0,6.87,57.0,7.85,13.29,47.59359,-54.27349
2023-05-01 23:14:00+00:00,63.0,7.12,63.0,8.62,12.73,47.59359,-54.27349
2023-05-01 23:24:00+00:00,66.0,7.37,62.0,8.46,12.73,47.59359,-54.27349
2023-05-01 23:34:00+00:00,63.0,5.9,61.0,6.78,12.73,47.59359,-54.27349
2023-05-01 23:44:00+00:00,61.0,6.77,57.0,7.96,12.73,47.59359,-54.27349
2023-05-01 23:54:00+00:00,53.0,7.23,52.0,8.11,12.73,47.59359,-54.27349
